Tracking 28790 objects as of 19-Apr-2024
HD Live streaming from Space Station
objects crossing your sky now

OSCAR 24

Track OSCAR 24 now!
10-day predictions
OSCAR 24 is classified as:


NORAD ID: 15936
Int'l Code: 1985-066B
Perigee: 1,005.6 km
Apogee: 1,258.9 km
Inclination: 90.2 °
Period: 107.8 minutes
Semi major axis: 7503 km
RCS: 1.6504 m2 (large)
Launch date: August 3, 1985
Source: United States (US)
Launch site: AIR FORCE WESTERN TEST RANGE (AFWTR)
Your satellite tracking list
Your tracking list is empty




NASA's NSSDC Master Catalog

Two Line Element Set (TLE):
1 15936U 85066B   24109.91109703  .00000264  00000-0  46369-3 0  9998
2 15936  90.1809  81.6106 0168780 351.3793  60.0726 13.35759060885951
Source of the keplerian elements: AFSPC